Regional Weather Roundup
Issued by NWS

Home | Current Version | Previous Version | Text Only | Print | Product List | Glossary On
Versions: 1 2 3 4 5 6 7 8 9 10 11 12 13 14 15 16 17 18 19 20 21 22 23 24 25 26 27 28 29 30 31 32 33 34 35 36 37 38 39 40 41 42 43 44 45 46 47 48 49 50
000
ASUS43 KMPX 270310
RWRMN
WEATHER ROUNDUP FOR MINNESOTA
NATIONAL WEATHER SERVICE TWIN CITIES/CHANHASSEN MN
1000 PM CDT TUE MAY 26 2015


NOTE: "FAIR" INDICATES FEW OR NO CLOUDS BELOW 12,000 FEET WITH NO
SIGNIFICANT WEATHER AND/OR OBSTRUCTIONS TO VISIBILITY. N/A MEANS
CURRENT SKY AND/OR WEATHER CONDITIONS ARE NOT AVAILABLE.

MNZ060>063-068>070-270400-
   Twin Cities Metro

CITY           SKY/WX    TMP DP  RH WIND       PRES   REMARKS
TWIN CITIES    CLOUDY    58  56  93 SW3       29.80R
ST PAUL        CLOUDY    57  56  96 W6        29.80R
CRYSTAL        CLOUDY    57  55  93 W3        29.79R
BLAINE         CLOUDY    57  57 100 SW3       29.80R
LAKEVILLE      CLOUDY    55  55 100 NW6       29.81R
EDEN PRAIRIE   LGT RAIN  57  55  93 SW3       29.80R
SOUTH ST PAUL  CLOUDY    58  56  95 W3        29.80R
LAKE ELMO      MOCLDY    55  55 100 W5        29.81R
$$
MNZ001>005-007-008-013>017-022>024-027-028-270400-
   Northwest Minnesota

CITY           SKY/WX    TMP DP  RH WIND       PRES   REMARKS
BEMIDJI        CLOUDY    65  51  62 S6        29.77F
HALLOCK        PTCLDY    66  45  45 N3        29.74R
ROSEAU         CLEAR     66  54  63 CALM      29.76R
WARROAD        PTCLDY    64  55  72 CALM      29.76R
THIEF RVR FALL PTCLDY    68  52  56 SE8       29.78R
CROOKSTON      PTCLDY    63  55  77 S3        29.77R
FOSSTON        MOCLDY    63  52  67 CALM      29.80R
DETROIT LAKES  CLOUDY    64  55  72 CALM      29.82R
MOORHEAD       MOCLDY    66  55  68 SW6       29.80R
PARK RAPIDS    CLOUDY    63  54  72 SW5       29.80R
MAHNOMEN       FAIR      65  56  73 S6        29.80R
$$
MNZ006-009>011-018-025>026-270400-
   North Central Minnesota

CITY           SKY/WX    TMP DP  RH WIND       PRES   REMARKS
BAUDETTE       MOCLDY    66  53  63 W3        29.75R
FLAG ISLAND    PTCLDY    68  48  49 E6        29.73S
INTL FALLS     MOCLDY    58  52  80 CALM      29.75R
WASKISH        CLOUDY    64  55  72 CALM      29.76R
BIG FORK       CLOUDY    61  54  77 CALM      29.78R
LONGVILLE      CLOUDY    61  55  82 S3        29.81R
GRAND RAPIDS   CLOUDY    57  50  77 S6        29.81R
CRANE LAKE     CLOUDY    55  54  94 CALM      29.78R
ORR            CLOUDY    61  48  63 CALM      29.76R
COOK           CLOUDY    61  54  77 CALM      29.79R
WALKER         FAIR      60  54  82 CALM      29.79R
$$
MNZ012-019>021-037-270400-
   Northeast Minnesota

CITY           SKY/WX    TMP DP  RH WIND       PRES   REMARKS
DULUTH         CLOUDY    57  50  77 CALM      29.79R
HIBBING        CLOUDY    57  50  77 CALM      29.79R
EVELETH        CLOUDY    57  50  77 CALM      29.80R
DULUTH HARBOR  CLOUDY    54  52  94 CALM      29.79R
TWO HARBORS    CLOUDY    57  54  88 SE5       29.76R
GRAND MARAIS     N/A     50  47  89 CALM      29.75S
G MARAIS ARPRT CLOUDY    54  48  82 N5        29.79S
$$
MNZ029>031-032-039>041-046>048-054>057-064-270400-
   West Central Minnesota

CITY           SKY/WX    TMP DP  RH WIND       PRES   REMARKS
FERGUS FALLS   MOCLDY    66  55  68 CALM      29.81R
WHEATON        CLOUDY    61  55  82 CALM      29.82R
MORRIS         CLOUDY    61  55  82 S3        29.81R
ALEXANDRIA     CLOUDY    60  53  77 SW3       29.84R
ELBOW LAKE     FAIR      63  55  76 S3        29.81R
WADENA         CLOUDY    61  55  82 CALM      29.81R
GLENWOOD       CLOUDY    59  57  94 SW5       29.84R
APPLETON       CLOUDY    63  55  77 CALM      29.82R
BENSON         CLOUDY    61  55  82 SW3       29.84R
ORTONVILLE     CLOUDY    64  54  68 S3        29.82R
MADISON        CLOUDY    63  55  77 CALM      29.83R
WILLMAR        FAIR      61  57  88 W3        29.85R
$$
MNZ033>034-036-042>043-049>051-058-059-270400-
   Central Minnesota

CITY           SKY/WX    TMP DP  RH WIND       PRES   REMARKS
ST CLOUD       CLOUDY    57  55  93 NW5       29.81R
SAUK CENTRE    FAIR      60  56  89 CALM      29.83R
PAYNESVILLE    CLOUDY    53  53  99 CALM      29.84R
AITKIN         CLOUDY    55  48  76 CALM      29.80R
PINE RIVER     CLOUDY    61  55  82 CALM      29.85R
BRAINERD       CLOUDY    58  54  86 CALM      29.82R
STAPLES        CLOUDY    61  54  77 S3        29.82R
LONG PRAIRIE   FAIR      59  55  88 CALM      29.83R
LITTLE FALLS   CLOUDY    55  54  94 CALM      29.82R
LITCHFIELD     CLOUDY    59  59 100 CALM      29.83R
BUFFALO        CLOUDY    57  55  92 W3        29.82R
MAPLE LAKE     CLOUDY    58  57  96 W3        29.82R
$$
MNZ037-044-045-052-053-270400-
   East Central Minnesota

CITY           SKY/WX    TMP DP  RH WIND       PRES   REMARKS
PRINCETON      CLOUDY    59  55  88 CALM      29.80R
MORA           CLOUDY    55  50  82 N3        29.82R
CAMBRIDGE      CLOUDY    57  50  77 CALM      29.78R HAZE
RUSH CITY      CLOUDY    55  54  96 CALM      29.80R FOG
MOOSE LAKE     CLOUDY    55  54  94 CALM      29.77R
HINCKLEY       FAIR      55  52  88 N5        29.79R
CLOQUET        CLOUDY    55  50  82 CALM      29.79R
MCGREGOR       CLOUDY    55  52  88 CALM      29.81R
$$
MNZ071>073-080-081-089-090-097-098-270400-
   Southwest Minnesota

CITY           SKY/WX    TMP DP  RH WIND       PRES   REMARKS
MONTEVIDEO     CLOUDY    61  57  88 SW3       29.85R
GRANITE FALLS  CLOUDY    57  55  92 S5        29.86R
CANBY          CLOUDY    59  54  84 W3        29.85S
MARSHALL       CLOUDY    59  54  82 CALM      29.85R
REDWOOD FALLS  CLOUDY    59  56  89 CALM      29.84R
OLIVIA         CLOUDY    54  52  94 W3        29.84R
PIPESTONE      CLOUDY    63  54  72 N3        29.87R
WINDOM         CLOUDY    57  55  94 CALM      29.86R
WORTHINGTON    MOCLDY    57  54  88 CALM      29.87R
JACKSON        MOCLDY    55  55 100 NW5       29.86R
TRACY          CLOUDY    58  57  96 CALM      29.86R
SLAYTON        CLOUDY    58  57  99 CALM      29.88R
$$
MNZ065>067-074>077-082>085-091>093-270400-
   South Central Minnesota

CITY           SKY/WX    TMP DP  RH WIND       PRES   REMARKS
MANKATO        CLOUDY    57  55  94 NW6       29.82R
NEW ULM        CLOUDY    57  57 100 W3        29.83R
ST JAMES       CLOUDY    59  59 100 W7        29.85R
FAIRMONT       CLOUDY    57  52  82 NW3       29.84R
GLENCOE        CLOUDY    58  58  99 CALM      29.82R
FARIBAULT      LGT RAIN  57  57 100 NW5       29.82R
OWATONNA       DRIZZLE   57  55  94 NW6       29.81R
WASECA         DRIZZLE   55  54  94 NW7       29.83R
ALBERT LEA     MOCLDY    57  57 100 W3        29.82R
$$
MNZ078>079-086>088-094>096-270400-
   Southeast Minnesota

CITY           SKY/WX    TMP DP  RH WIND       PRES   REMARKS
ROCHESTER      CLOUDY    58  57  97 NW9       29.81R
RED WING       DRIZZLE   57  57 100 NW5       29.78R
STANTON        DRIZZLE   59  56  91 NW6       29.79R
DODGE CENTER   CLOUDY    59  57  94 NW7       29.81R
WINONA         CLOUDY    61  59  94 W5        29.76R
AUSTIN         CLOUDY    57  55  94 W7        29.81R
PRESTON        CLOUDY    58  56  95 W5        29.80R
$$
ABBREVIATIONS USED IN REMARKS
   TC - TEMPERATURES IN CELSIUS
  WCI - WIND CHILL INDEX
   HX - HEAT INDEX
  VSB - VISIBILITY
$$



USA.gov is the U.S. government's official web portal to all federal, state and local government web resources and services.